Hourly Data Report for June 12, 2021

SANIRAJAK AIRPORT
NUNAVUT
Current Station Operator: NAVCAN

68°46'33.000" N
81°14'33.000" W
9.10 m
2402354
71293
YUX

Download Data

Hourly Data (June 2021)
Hourly Data Report for June 12, 2021
TIME
LST
Temp Definition
°C
Dew Point Definition
°C
Rel Hum Definition
%
Precip. Amount Definition
mm

Wind Dir Definition
10's deg

Wind Spd Definition
km/h
Visibility Definition
km
Stn Press Definition
kPa
Hmdx Definition


Wind Chill Definition


Weather Definition


00:00 -0.3 -1.7 90 0.0 30 24 16.1 101.25   -6 LegendNANA
01:00 -0.5 -1.8 91 0.0 30 37 16.1 101.20   -8 LegendNANA
02:00 -0.6 -2.0 90 0.0 31 34 16.1 101.21   -8 LegendNANA
03:00 -0.9 -2.3 90 0.0 31 28 16.1 101.23   -7 LegendNANA
04:00 -0.8 -2.2 90 0.0 31 26 16.1 101.22   -7 LegendNANA
05:00 -0.3 -1.7 90 0.0 31 37 16.1 101.20   -8 LegendNANA
06:00 0.2 -1.4 89 0.0 31 35 16.1 101.18     LegendNANA
07:00 0.7 -1.0 88 0.0 30 24 16.1 101.18     LegendNANA
08:00 1.3 -0.6 87 0.0 30 34 16.1 101.16     LegendNANA
09:00 1.6 -0.4 87 0.0 31 34 16.1 101.11     LegendNANA
10:00 1.7 -0.3 86 0.0 32 30 16.1 101.09     LegendNANA
11:00 1.8 -0.5 85 0.0 32 28 16.1 101.08     LegendNANA
12:00 1.8 -0.3 86 0.0 32 30 16.1 101.08     LegendNANA
13:00 1.8 -0.1 87 0.0 33 34 16.1 101.08     LegendNANA
14:00 1.9 -0.2 86 0.0 33 37 16.1 101.10     LegendNANA
15:00 1.9 0.0 87 0.0 33 32 16.1 101.15     LegendNANA
16:00 1.9 0.0 87 0.0 32 34 16.1 101.17     LegendNANA
17:00 1.9 0.1 88 0.0 30 26 16.1 101.24     LegendNANA
18:00 1.7 0.1 89 0.0 32 28 16.1 101.23     LegendNANA
19:00 1.6 0.0 89 0.0 33 34 16.1 101.22     LegendNANA
20:00 1.2 -0.1 91 0.0 32 30 16.1 101.26     LegendNANA
21:00 0.8 -0.2 93 0.0 32 28 16.1 101.26     LegendNANA
22:00 0.3 -0.6 94 0.0 32 28 16.1 101.24     LegendNANA
23:00 -0.3 -0.9 96 0.0 32 26 16.1 101.23   -6 LegendNANA

Notes on Data Quality.

Legend

  • E = Estimated
  • M = Missing
  • NA = Not Available*
  • [empty] = Indicates an unobserved value
Date modified: